Location: San Martino di Castrozza
(46.2667°N, 11.8000°E)
Time: 03:34:34
(UTC+00:00)

Cosmos 1680 Rocket - Pass Details

Date: 23 April 2021
Orbit: 759 x 782 km, 74.1° (Epoch: 15 May)

Event Time Altitude Azimuth Distance (km) Brightness Sun altitude
Rises 01:06:24 0° 336° (NNW) 3,266 7.2 -25.7°
Reaches altitude 10° 01:08:47 10° 335° (NNW) 2,337 6.4 -25.5°
Maximum altitude 01:14:05 76° 251° (WSW) 808 3.4 -25.0°
Enters shadow 01:14:20 74° 222° (SW) 815 3.3 -25.0°
